User: anonymous   Login
Location: Elstree
(51.6403°N, 0.2969°W)
Time: 02:04:23
(UTC+00:00)
Language:

FALCON 9 DEB - Orbit

View from above orbital plane
View from above orbital plane
View from above satellite
View from above satellite

Ground track
Ground track

The orbit data is extracted from the following two-line orbital elements,

1 44295U 19029BN  21125.34172486  .00002727  00000-0  64030-4 0  9996
2 44295  53.0022  26.2126 0009314  29.6609 330.4923 15.45852795111240
Epoch (UTC): 05 May 2021 08:12:05
Eccentricity: 0.0009314
inclination: 53.0022°
perigee height: 422 km
apogee height: 435 km
right ascension of ascending node: 26.2126°
argument of perigee: 29.6609°
revolutions per day: 15.45852795
mean anomaly at epoch: 330.4923°
orbit number at epoch: 11124

The dashed part of the orbit path shows where the satellite is in the earth's shadow,  

DLR